THY5QT LTFM-LEBL

Flight info

Callsign THY5QT
Flight time N/A
Altitude 40000
Route BARPE1D/35L BARPE UG12 GOLDO DCT SUTIS DCT TALAS DCT ORRIH DCT DIRES DCT PIKEL/N0449F390 DCT BAR DCT EPIKU/N0454F400 DCT GINOX DCT KIFMI/N0391F280 DCT ELVOP DCT MUREN/N0406F290 M601 VERSO
Aircraft A333/H-SDE3GHIJ2J3J5M1RVWXY/LB2D1

Departure

Time 2026-05-05 14:18
Airport İstanbul Airport (LTFM)

Arrival

Time N/A
Airport Josep Tarradellas Barcelona-El Prat Airport (LEBL)
Time Latitude Longitude Altitude Speed Heading
2026-05-05 13:47 41.26786 28.73442 338 ft 0 kts 179°
2026-05-05 13:48 41.26783 28.73442 332 ft 0 kts 179°
2026-05-05 14:10 41.26784 28.73442 338 ft 2 kts 179°
2026-05-05 14:10 41.26809 28.73441 334 ft 4 kts 178°
2026-05-05 14:10 41.26831 28.73440 335 ft 4 kts 183°
2026-05-05 14:10 41.26856 28.73448 332 ft 4 kts 222°
2026-05-05 14:11 41.26869 28.73477 332 ft 4 kts 259°
2026-05-05 14:11 41.26871 28.73510 334 ft 4 kts 269°
2026-05-05 14:11 41.26871 28.73520 333 ft 0 kts 269°
2026-05-05 14:14 41.26871 28.73515 333 ft 3 kts 269°
2026-05-05 14:14 41.26870 28.73423 333 ft 13 kts 269°
2026-05-05 14:14 41.26866 28.73274 335 ft 19 kts 266°
2026-05-05 14:14 41.26864 28.73094 338 ft 20 kts 269°
2026-05-05 14:15 41.26818 28.72998 334 ft 10 kts 196°
2026-05-05 14:15 41.26680 28.72993 335 ft 29 kts 180°
2026-05-05 14:15 41.26481 28.73004 333 ft 28 kts 180°
2026-05-05 14:15 41.26318 28.73003 333 ft 24 kts 180°
2026-05-05 14:16 41.26225 28.72967 332 ft 7 kts 246°
2026-05-05 14:16 41.26217 28.72827 333 ft 24 kts 272°
2026-05-05 14:16 41.26213 28.72603 335 ft 25 kts 269°
2026-05-05 14:16 41.26256 28.72524 336 ft 11 kts 349°
2026-05-05 14:17 41.26299 28.72523 334 ft 4 kts 360°
2026-05-05 14:17 41.26410 28.72521 334 ft 42 kts 359°
2026-05-05 14:17 41.26914 28.72513 334 ft 100 kts 358°
2026-05-05 14:17 41.27777 28.72488 335 ft 146 kts 359°
2026-05-05 14:18 41.28846 28.72463 813 ft 150 kts 356°
2026-05-05 14:18 41.29529 28.72334 1314 ft 145 kts 352°
2026-05-05 14:18 41.30540 28.72198 1952 ft 148 kts 357°
2026-05-05 14:18 41.31583 28.72180 2530 ft 156 kts 360°
2026-05-05 14:19 41.32730 28.72136 2839 ft 178 kts 359°
2026-05-05 14:19 41.34041 28.72148 3106 ft 200 kts
2026-05-05 14:19 41.35528 28.72200 3308 ft 228 kts 357°
2026-05-05 14:19 41.37130 28.71617 3604 ft 253 kts 329°
2026-05-05 14:20 41.38337 28.69862 4262 ft 265 kts 298°
2026-05-05 14:20 41.38821 28.67524 4684 ft 261 kts 279°
2026-05-05 14:20 41.38846 28.65099 5086 ft 267 kts 268°
2026-05-05 14:20 41.38595 28.62592 5779 ft 275 kts 265°
2026-05-05 14:21 41.38279 28.60089 6793 ft 276 kts 259°
2026-05-05 14:21 41.37519 28.57716 7679 ft 285 kts 240°
2026-05-05 14:21 41.36069 28.55854 8533 ft 299 kts 213°
2026-05-05 14:21 41.34070 28.55022 9379 ft 308 kts 186°
2026-05-05 14:22 41.31918 28.54972 10172 ft 315 kts 178°
2026-05-05 14:22 41.29654 28.55073 10577 ft 334 kts 178°
2026-05-05 14:22 41.27255 28.55180 10905 ft 355 kts 178°
2026-05-05 14:22 41.24745 28.54985 11439 ft 366 kts 192°
2026-05-05 14:23 41.22309 28.54027 12149 ft 370 kts 201°
2026-05-05 14:23 41.19873 28.52830 12919 ft 373 kts 202°
2026-05-05 14:23 41.17430 28.51595 13657 ft 378 kts 202°
2026-05-05 14:23 41.14958 28.50349 14336 ft 382 kts 202°
2026-05-05 14:24 41.12478 28.49105 15013 ft 385 kts 202°
2026-05-05 14:24 41.09949 28.47843 15701 ft 387 kts 202°
2026-05-05 14:24 41.07420 28.46591 16377 ft 390 kts 201°
2026-05-05 14:24 41.04809 28.45569 17034 ft 394 kts 195°
2026-05-05 14:25 41.02140 28.44710 17689 ft 396 kts 194°
2026-05-05 14:25 40.99444 28.43877 18310 ft 399 kts 194°
2026-05-05 14:25 40.96732 28.43039 18877 ft 402 kts 194°
2026-05-05 14:25 40.94003 28.42178 19450 ft 403 kts 196°
2026-05-05 14:26 40.91375 28.40900 20032 ft 402 kts 209°
2026-05-05 14:26 40.89079 28.38815 20561 ft 401 kts 225°
2026-05-05 14:26 40.87308 28.35996 21050 ft 399 kts 242°
2026-05-05 14:26 40.86184 28.32674 21537 ft 396 kts 257°
2026-05-05 14:27 40.85555 28.29138 22060 ft 396 kts 262°
2026-05-05 14:27 40.85037 28.25563 22578 ft 398 kts 262°
2026-05-05 14:27 40.84522 28.21957 23090 ft 401 kts 262°
2026-05-05 14:27 40.83994 28.18330 23584 ft 403 kts 262°
2026-05-05 14:28 40.83462 28.14731 23991 ft 406 kts 262°
2026-05-05 14:28 40.82914 28.11067 24387 ft 409 kts 262°
2026-05-05 14:28 40.82359 28.07374 24775 ft 411 kts 262°
2026-05-05 14:28 40.81797 28.03657 25162 ft 413 kts 263°
2026-05-05 14:29 40.81230 27.99925 25566 ft 416 kts 263°
2026-05-05 14:29 40.80660 27.96172 25936 ft 418 kts 263°
2026-05-05 14:29 40.80085 27.92404 26308 ft 420 kts 263°
2026-05-05 14:29 40.79587 27.88597 26672 ft 420 kts 268°
2026-05-05 14:30 40.79446 27.84761 27050 ft 419 kts 274°
2026-05-05 14:30 40.79466 27.80910 27415 ft 421 kts 275°
2026-05-05 14:30 40.79513 27.77037 27761 ft 423 kts 275°
2026-05-05 14:30 40.79560 27.73142 28120 ft 425 kts 275°
2026-05-05 14:31 40.79602 27.69231 28473 ft 428 kts 275°
2026-05-05 14:31 40.79641 27.65298 28820 ft 430 kts 275°
2026-05-05 14:31 40.79769 27.61358 29152 ft 430 kts 280°
2026-05-05 14:31 40.80282 27.57487 29482 ft 428 kts 287°
2026-05-05 14:32 40.81036 27.53687 29816 ft 429 kts 289°
2026-05-05 14:32 40.81839 27.49873 30134 ft 431 kts 289°
2026-05-05 14:32 40.82646 27.46056 30384 ft 433 kts 289°
2026-05-05 14:32 40.83453 27.42217 30699 ft 434 kts 289°
2026-05-05 14:33 40.84258 27.38366 30983 ft 436 kts 289°
2026-05-05 14:33 40.85064 27.34501 31248 ft 438 kts 289°
2026-05-05 14:33 40.85860 27.30667 31519 ft 440 kts 289°
2026-05-05 14:33 40.86668 27.26767 31786 ft 441 kts 289°
2026-05-05 14:34 40.87478 27.22854 32068 ft 442 kts 288°
2026-05-05 14:34 40.88287 27.18932 32413 ft 441 kts 288°
2026-05-05 14:34 40.89090 27.15029 32808 ft 439 kts 288°
2026-05-05 14:34 40.89889 27.11139 33179 ft 438 kts 288°
2026-05-05 14:35 40.90684 27.07260 33533 ft 437 kts 288°
2026-05-05 14:35 40.91479 27.03377 33872 ft 437 kts 288°
2026-05-05 14:35 40.92136 26.99458 34186 ft 438 kts 282°
2026-05-05 14:35 40.92395 26.95428 34443 ft 442 kts 274°
2026-05-05 14:36 40.92308 26.91355 34697 ft 444 kts 271°
2026-05-05 14:36 40.92113 26.87279 34953 ft 444 kts 269°
2026-05-05 14:36 40.91866 26.83203 35184 ft 445 kts 269°
2026-05-05 14:36 40.91599 26.79128 35441 ft 445 kts 269°
2026-05-05 14:37 40.91332 26.75059 35696 ft 445 kts 269°
2026-05-05 14:37 40.91069 26.70978 35942 ft 444 kts 269°
2026-05-05 14:37 40.90815 26.66915 36187 ft 444 kts 269°